Time,TemperatureF,DewpointF,PressureIn,WindDirection,WindDirectionDegrees,WindSpeedMPH,WindSpeedGustMPH,Humidity,HourlyPrecipIn,Conditions,Clouds,dailyrainin,SolarRadiationWatts/m^2,SoftwareType,DateUTC
2013-07-24 00:02:00,79.0,75.0,-100.00,South,179,4.0,8.0,89,0.00,,,0.00,0.000000,,2013-07-24 05:02:00,
2013-07-24 00:33:00,78.0,75.0,-100.00,SSW,195,5.0,9.0,90,0.00,,,0.00,0.000000,,2013-07-24 05:33:00,
2013-07-24 00:43:00,78.0,75.0,-100.00,SSW,195,5.0,9.0,90,0.00,,,0.00,0.000000,,2013-07-24 05:43:00,
2013-07-24 00:52:00,78.0,75.0,-100.00,SSW,195,5.0,9.0,90,0.00,,,0.00,0.000000,,2013-07-24 05:52:00,
2013-07-24 01:01:00,78.0,75.0,-100.00,SSW,195,5.0,9.0,90,0.00,,,0.00,0.000000,,2013-07-24 06:01:00,
2013-07-24 01:34:00,76.0,74.0,-100.00,SSW,197,3.0,7.0,93,0.00,,,0.00,0.000000,,2013-07-24 06:34:00,
2013-07-24 01:43:00,76.0,74.0,-100.00,SSW,197,3.0,7.0,93,0.00,,,0.00,0.000000,,2013-07-24 06:43:00,
2013-07-24 01:53:00,76.0,74.0,-100.00,SSW,197,3.0,7.0,93,0.00,,,0.00,0.000000,,2013-07-24 06:53:00,
2013-07-24 02:02:00,76.0,74.0,-100.00,SSW,197,3.0,7.0,93,0.00,,,0.00,0.000000,,2013-07-24 07:02:00,
2013-07-24 02:32:00,75.0,73.0,-100.00,SSW,196,4.0,8.0,94,0.00,,,0.00,0.000000,,2013-07-24 07:32:00,
2013-07-24 02:43:00,75.0,73.0,-100.00,SSW,196,4.0,8.0,94,0.00,,,0.00,0.000000,,2013-07-24 07:43:00,
2013-07-24 02:53:00,75.0,73.0,-100.00,SSW,196,4.0,8.0,94,0.00,,,0.00,0.000000,,2013-07-24 07:53:00,
2013-07-24 03:02:00,75.0,73.0,-100.00,SSW,196,4.0,8.0,94,0.00,,,0.00,0.000000,,2013-07-24 08:02:00,
2013-07-24 03:32:00,74.0,72.0,-100.00,SSE,152,2.0,5.0,95,0.00,,,0.00,0.000000,,2013-07-24 08:32:00,
2013-07-24 03:43:00,74.0,72.0,-100.00,SSE,152,2.0,5.0,95,0.00,,,0.00,0.000000,,2013-07-24 08:43:00,
2013-07-24 03:52:00,74.0,72.0,-100.00,SSE,152,2.0,5.0,95,0.00,,,0.00,0.000000,,2013-07-24 08:52:00,
2013-07-24 04:02:00,74.0,72.0,-100.00,SSE,152,2.0,5.0,95,0.00,,,0.00,0.000000,,2013-07-24 09:02:00,
2013-07-24 04:32:00,73.0,72.0,-100.00,SSE,158,2.0,5.0,96,0.00,,,0.00,0.000000,,2013-07-24 09:32:00,
2013-07-24 04:43:00,73.0,72.0,-100.00,SSE,158,2.0,5.0,96,0.00,,,0.00,0.000000,,2013-07-24 09:43:00,
2013-07-24 04:53:00,73.0,72.0,-100.00,SSE,158,2.0,5.0,96,0.00,,,0.00,0.000000,,2013-07-24 09:53:00,
2013-07-24 05:02:00,73.0,72.0,-100.00,SSE,158,2.0,5.0,96,0.00,,,0.00,0.000000,,2013-07-24 10:02:00,
2013-07-24 05:33:00,73.0,72.0,-100.00,South,176,0.0,5.0,96,0.00,,,0.00,0.000000,,2013-07-24 10:33:00,
2013-07-24 05:43:00,73.0,72.0,-100.00,South,176,0.0,5.0,96,0.00,,,0.00,0.000000,,2013-07-24 10:43:00,
2013-07-24 05:53:00,73.0,72.0,-100.00,South,176,0.0,5.0,96,0.00,,,0.00,0.000000,,2013-07-24 10:53:00,
2013-07-24 06:02:00,73.0,72.0,-100.00,South,176,0.0,5.0,96,0.00,,,0.00,0.000000,,2013-07-24 11:02:00,
2013-07-24 06:32:00,72.0,71.0,-100.00,West,259,3.0,6.0,96,0.00,,,0.00,0.000000,,2013-07-24 11:32:00,
2013-07-24 06:44:00,72.0,71.0,-100.00,West,259,3.0,6.0,96,0.00,,,0.00,0.000000,,2013-07-24 11:44:00,
2013-07-24 06:52:00,72.0,71.0,-100.00,West,259,3.0,6.0,96,0.00,,,0.00,0.000000,,2013-07-24 11:52:00,
2013-07-24 07:02:00,72.0,71.0,-100.00,West,259,3.0,6.0,96,0.00,,,0.00,0.000000,,2013-07-24 12:02:00,
2013-07-24 07:32:00,72.0,71.0,-100.00,WSW,251,3.0,5.0,96,0.00,,,-99.99,7.000000,,2013-07-24 12:32:00,
2013-07-24 07:42:00,72.0,71.0,-100.00,WSW,251,3.0,5.0,96,0.00,,,-99.99,7.000000,,2013-07-24 12:42:00,
2013-07-24 07:52:00,72.0,71.0,-100.00,WSW,251,3.0,5.0,96,0.00,,,-99.99,7.000000,,2013-07-24 12:52:00,
2013-07-24 08:02:00,72.0,71.0,-100.00,WSW,251,3.0,5.0,96,0.00,,,-99.99,7.000000,,2013-07-24 13:02:00,
2013-07-24 08:32:00,74.0,73.0,-100.00,WSW,241,3.0,5.0,97,0.00,,,0.00,61.000000,,2013-07-24 13:32:00,
2013-07-24 08:43:00,74.0,73.0,-100.00,WSW,241,3.0,5.0,97,0.00,,,0.00,61.000000,,2013-07-24 13:43:00,
2013-07-24 08:53:00,74.0,73.0,-100.00,WSW,241,3.0,5.0,97,0.00,,,0.00,61.000000,,2013-07-24 13:53:00,
2013-07-24 09:02:00,74.0,73.0,-100.00,WSW,241,3.0,5.0,97,0.00,,,0.00,61.000000,,2013-07-24 14:02:00,
2013-07-24 09:32:00,79.0,77.0,-100.00,SW,233,6.0,12.0,94,0.00,,,0.00,140.000000,,2013-07-24 14:32:00,
2013-07-24 09:43:00,79.0,77.0,-100.00,SW,233,6.0,12.0,94,0.00,,,0.00,140.000000,,2013-07-24 14:43:00,
2013-07-24 09:55:00,79.0,77.0,-100.00,SW,233,6.0,12.0,94,0.00,,,0.00,140.000000,,2013-07-24 14:55:00,
2013-07-24 10:02:00,79.0,77.0,-100.00,SW,233,6.0,12.0,94,0.00,,,0.00,140.000000,,2013-07-24 15:02:00,
2013-07-24 10:33:00,82.0,75.0,-100.00,WSW,252,6.0,15.0,80,0.00,,,0.00,238.000000,,2013-07-24 15:33:00,
2013-07-24 10:43:00,82.0,75.0,-100.00,WSW,252,6.0,15.0,80,0.00,,,0.00,238.000000,,2013-07-24 15:43:00,
2013-07-24 10:53:00,82.0,75.0,-100.00,WSW,252,6.0,15.0,80,0.00,,,0.00,238.000000,,2013-07-24 15:53:00,
2013-07-24 11:02:00,82.0,75.0,-100.00,WSW,252,6.0,15.0,80,0.00,,,0.00,238.000000,,2013-07-24 16:02:00,
2013-07-24 11:33:00,84.0,75.0,-100.00,WSW,252,8.0,15.0,75,0.00,,,0.00,341.000000,,2013-07-24 16:33:00,
2013-07-24 11:43:00,84.0,75.0,-100.00,WSW,252,8.0,15.0,75,0.00,,,0.00,341.000000,,2013-07-24 16:43:00,
2013-07-24 11:53:00,84.0,75.0,-100.00,WSW,252,8.0,15.0,75,0.00,,,0.00,341.000000,,2013-07-24 16:53:00,
2013-07-24 12:02:00,84.0,75.0,-100.00,WSW,252,8.0,15.0,75,0.00,,,0.00,341.000000,,2013-07-24 17:02:00,
2013-07-24 12:33:00,89.0,75.0,-100.00,WSW,255,6.0,16.0,64,0.00,,,-99.99,734.000000,,2013-07-24 17:33:00,
2013-07-24 12:43:00,89.0,75.0,-100.00,WSW,255,6.0,16.0,64,0.00,,,-99.99,734.000000,,2013-07-24 17:43:00,
2013-07-24 12:53:00,89.0,75.0,-100.00,WSW,255,6.0,16.0,64,0.00,,,-99.99,734.000000,,2013-07-24 17:53:00,
2013-07-24 13:02:00,89.0,75.0,-100.00,WSW,255,6.0,16.0,64,0.00,,,-99.99,734.000000,,2013-07-24 18:02:00,
2013-07-24 13:33:00,90.0,73.0,-100.00,West,263,8.0,17.0,57,0.00,,,0.00,917.000000,,2013-07-24 18:33:00,
2013-07-24 13:43:00,90.0,73.0,-100.00,West,263,8.0,17.0,57,0.00,,,0.00,917.000000,,2013-07-24 18:43:00,
2013-07-24 13:52:00,90.0,73.0,-100.00,West,263,8.0,17.0,57,0.00,,,0.00,917.000000,,2013-07-24 18:52:00,
2013-07-24 14:02:00,90.0,73.0,-100.00,West,263,8.0,17.0,57,0.00,,,0.00,917.000000,,2013-07-24 19:02:00,
2013-07-24 14:33:00,92.0,73.0,-100.00,WSW,240,6.0,16.0,54,0.00,,,0.00,861.000000,,2013-07-24 19:33:00,
2013-07-24 14:43:00,92.0,73.0,-100.00,WSW,240,6.0,16.0,54,0.00,,,0.00,861.000000,,2013-07-24 19:43:00,
2013-07-24 14:53:00,92.0,73.0,-100.00,WSW,240,6.0,16.0,54,0.00,,,0.00,861.000000,,2013-07-24 19:53:00,
2013-07-24 15:02:00,92.0,73.0,-100.00,WSW,240,6.0,16.0,54,0.00,,,0.00,861.000000,,2013-07-24 20:02:00,
2013-07-24 15:33:00,92.0,73.0,-100.00,SW,230,7.0,17.0,54,0.00,,,-99.99,892.000000,,2013-07-24 20:33:00,
2013-07-24 15:43:00,92.0,73.0,-100.00,SW,230,7.0,17.0,54,0.00,,,-99.99,892.000000,,2013-07-24 20:43:00,
2013-07-24 15:53:00,92.0,73.0,-100.00,SW,230,7.0,17.0,54,0.00,,,-99.99,892.000000,,2013-07-24 20:53:00,
2013-07-24 16:02:00,92.0,73.0,-100.00,SW,230,7.0,17.0,54,0.00,,,-99.99,892.000000,,2013-07-24 21:02:00,
2013-07-24 17:32:00,93.0,73.0,-100.00,SW,229,6.0,14.0,52,-99.99,,,0.00,532.000000,,2013-07-24 22:32:00,
2013-07-24 17:43:00,93.0,73.0,-100.00,SW,229,6.0,14.0,52,-99.99,,,0.00,532.000000,,2013-07-24 22:43:00,
2013-07-24 17:53:00,93.0,73.0,-100.00,SW,229,6.0,14.0,52,-99.99,,,0.00,532.000000,,2013-07-24 22:53:00,
2013-07-24 18:02:00,93.0,73.0,-100.00,SW,229,6.0,14.0,52,-99.99,,,0.00,532.000000,,2013-07-24 23:02:00,
2013-07-24 18:33:00,91.0,73.0,-100.00,SW,219,4.0,10.0,55,0.00,,,0.00,234.000000,,2013-07-24 23:33:00,
2013-07-24 18:43:00,91.0,73.0,-100.00,SW,219,4.0,10.0,55,0.00,,,0.00,234.000000,,2013-07-24 23:43:00,
2013-07-24 18:52:00,91.0,73.0,-100.00,SW,219,4.0,10.0,55,0.00,,,0.00,234.000000,,2013-07-24 23:52:00,
2013-07-24 19:02:00,91.0,73.0,-100.00,SW,219,4.0,10.0,55,0.00,,,0.00,234.000000,,2013-07-25 00:02:00,
2013-07-24 19:33:00,90.0,74.0,-100.00,SW,222,3.0,8.0,59,0.00,,,0.00,165.000000,,2013-07-25 00:33:00,
2013-07-24 19:43:00,90.0,74.0,-100.00,SW,222,3.0,8.0,59,0.00,,,0.00,165.000000,,2013-07-25 00:43:00,
2013-07-24 19:53:00,90.0,74.0,-100.00,SW,222,3.0,8.0,59,0.00,,,0.00,165.000000,,2013-07-25 00:53:00,
2013-07-24 20:02:00,90.0,74.0,-100.00,SW,222,3.0,8.0,59,0.00,,,0.00,165.000000,,2013-07-25 01:02:00,
2013-07-24 20:32:00,84.0,76.0,-100.00,South,179,2.0,4.0,77,0.00,,,0.00,32.000000,,2013-07-25 01:32:00,
2013-07-24 20:43:00,84.0,76.0,-100.00,South,179,2.0,4.0,77,0.00,,,0.00,32.000000,,2013-07-25 01:43:00,
2013-07-24 20:53:00,84.0,76.0,-100.00,South,179,2.0,4.0,77,0.00,,,0.00,32.000000,,2013-07-25 01:53:00,
2013-07-24 21:02:00,84.0,76.0,-100.00,South,179,2.0,4.0,77,0.00,,,0.00,32.000000,,2013-07-25 02:02:00,
2013-07-24 21:33:00,82.0,77.0,-100.00,SSE,154,4.0,5.0,84,0.00,,,0.00,0.000000,,2013-07-25 02:33:00,
2013-07-24 21:43:00,82.0,77.0,-100.00,SSE,154,4.0,5.0,84,0.00,,,0.00,0.000000,,2013-07-25 02:43:00,
2013-07-24 21:53:00,82.0,77.0,-100.00,SSE,154,4.0,5.0,84,0.00,,,0.00,0.000000,,2013-07-25 02:53:00,
2013-07-24 22:02:00,82.0,77.0,-100.00,SSE,154,4.0,5.0,84,0.00,,,0.00,0.000000,,2013-07-25 03:02:00,
2013-07-24 22:40:00,81.0,76.0,-100.00,ENE,72,4.0,8.0,85,0.00,,,0.00,0.000000,,2013-07-25 03:40:00,
2013-07-24 22:52:00,81.0,76.0,-100.00,ENE,72,4.0,8.0,85,0.00,,,0.00,0.000000,,2013-07-25 03:52:00,
2013-07-24 23:02:00,81.0,76.0,-100.00,ENE,72,4.0,8.0,85,0.00,,,0.00,0.000000,,2013-07-25 04:02:00,
2013-07-24 23:33:00,80.0,73.0,-100.00,NE,37,4.0,7.0,79,0.00,,,0.00,0.000000,,2013-07-25 04:33:00,
2013-07-24 23:43:00,80.0,73.0,-100.00,NE,37,4.0,7.0,79,0.00,,,0.00,0.000000,,2013-07-25 04:43:00,
2013-07-24 23:53:00,80.0,73.0,-100.00,NE,37,4.0,7.0,79,0.00,,,0.00,0.000000,,2013-07-25 04:53:00,